When you browse on this site, cookies collect data to enhance your experience and personalize the content and advertising you see.
Visit our Privacy Policy to learn more. By continuing to use the site, you agree to this use of cookies and data.
  • En España
  • Lista de países
  • Para 7 días
  • Temperatura del agua
  • Mapa Satelital
  • El tiempo en el mapa
  • Informadores
  • user-avatar
    Iniciar sesión

    Tiempo cada hora Killarney

    Hoy, 20 Enero, Domingo

    Tiempo Temperatura Precipitaciones Viento Presión Humedad
    00:00 +7°C° 0.4 mm 4 mps 757 mmHg 94%
    01:00 +7°C° 0.4 mm 6 mps 757 mmHg 92%
    02:00 +6°C° 0.4 mm 7 mps 758 mmHg 90%
    03:00 +6°C° 0.2 mm 7 mps 759 mmHg 88%
    04:00 +6°C° 0.2 mm 7 mps 759 mmHg 86%
    05:00 +5°C° 0 mm 6 mps 760 mmHg 86%
    06:00 +5°C° 0 mm 6 mps 761 mmHg 85%
    07:00 +5°C° 0 mm 6 mps 762 mmHg 85%
    08:00 +5°C° 0 mm 6 mps 762 mmHg 84%
    09:00 +5°C° 0.1 mm 6 mps 763 mmHg 81%
    10:00 +5°C° 0.1 mm 6 mps 764 mmHg 78%
    11:00 +7°C° 0 mm 5 mps 765 mmHg 74%
    12:00 +6°C° 0 mm 5 mps 765 mmHg 73%
    13:00 +6°C° 0 mm 5 mps 765 mmHg 72%
    14:00 +6°C° 0 mm 4 mps 765 mmHg 71%
    15:00 +5°C° 0 mm 4 mps 766 mmHg 76%
    16:00 +4°C° 0 mm 3 mps 766 mmHg 81%
    17:00 +4°C° 0 mm 2 mps 767 mmHg 85%
    18:00 +5°C° 0 mm 1 mps 767 mmHg 86%
    19:00 +4°C° 0 mm 1 mps 768 mmHg 87%
    20:00 +4°C° 0 mm 1 mps 768 mmHg 87%
    21:00 +4°C° 0 mm 1 mps 768 mmHg 87%
    22:00 +4°C° 0 mm 1 mps 768 mmHg 87%
    23:00 +2°C° 0 mm 0 mps 768 mmHg 87%

    Mañana, 21 Enero, Lunes

    Tiempo Temperatura Precipitaciones Viento Presión Humedad
    00:00 +3°C° 0 mm 1 mps 767 mmHg 86%
    01:00 +3°C° 0 mm 1 mps 767 mmHg 85%
    02:00 +3°C° 0 mm 1 mps 766 mmHg 84%
    03:00 +4°C° 0 mm 1 mps 766 mmHg 84%
    04:00 +3°C° 0 mm 2 mps 765 mmHg 85%
    05:00 +3°C° 0 mm 2 mps 764 mmHg 85%
    06:00 +3°C° 0 mm 2 mps 764 mmHg 85%
    07:00 +3°C° 0 mm 3 mps 763 mmHg 85%
    08:00 +4°C° 0 mm 3 mps 762 mmHg 86%
    09:00 +5°C° 0.1 mm 4 mps 761 mmHg 83%
    10:00 +5°C° 0.1 mm 6 mps 760 mmHg 81%
    11:00 +5°C° 0.1 mm 7 mps 759 mmHg 78%
    12:00 +5°C° 1.3 mm 8 mps 758 mmHg 83%
    13:00 +5°C° 1.3 mm 8 mps 757 mmHg 87%
    14:00 +5°C° 1.3 mm 8 mps 756 mmHg 92%
    15:00 +4°C° 0.9 mm 7 mps 755 mmHg 86%
    16:00 +3°C° 0.9 mm 6 mps 755 mmHg 81%
    17:00 +2°C° 0.9 mm 6 mps 755 mmHg 76%
    18:00 +2°C° 0 mm 6 mps 755 mmHg 76%
    19:00 +1°C° 0 mm 5 mps 755 mmHg 76%
    20:00 +1°C° 0 mm 5 mps 755 mmHg 76%
    21:00 +1°C° 0.2 mm 6 mps 755 mmHg 76%
    22:00 +1°C° 0.2 mm 6 mps 755 mmHg 76%
    23:00 +2°C° 0.2 mm 6 mps 754 mmHg 77%

    Pasado mañana, 22 Enero, Martes

    Tiempo Temperatura Precipitaciones Viento Presión Humedad
    00:00 +1°C° 0.3 mm 6 mps 754 mmHg 77%
    01:00 +1°C° 0.3 mm 6 mps 754 mmHg 77%
    02:00 +1°C° 0.3 mm 6 mps 753 mmHg 77%
    03:00 +1°C° 0.3 mm 6 mps 753 mmHg 77%
    04:00 +1°C° 0.3 mm 6 mps 753 mmHg 78%
    05:00 +1°C° 0.3 mm 6 mps 753 mmHg 79%
    06:00 +1°C° 0.3 mm 6 mps 753 mmHg 79%
    07:00 +1°C° 0.3 mm 6 mps 753 mmHg 80%
    08:00 +1°C° 0.3 mm 6 mps 754 mmHg 80%
    09:00 +2°C° 0.3 mm 6 mps 754 mmHg 81%
    10:00 +2°C° 0.3 mm 6 mps 754 mmHg 81%
    11:00 +2°C° 0.3 mm 6 mps 754 mmHg 81%
    12:00 +2°C° 0.5 mm 6 mps 753 mmHg 82%
    13:00 +3°C° 0.5 mm 6 mps 753 mmHg 83%
    14:00 +3°C° 0.5 mm 7 mps 753 mmHg 84%
    15:00 +3°C° 0.6 mm 5 mps 753 mmHg 87%
    16:00 +4°C° 0.6 mm 4 mps 752 mmHg 90%
    17:00 +4°C° 0.6 mm 3 mps 752 mmHg 94%
    18:00 +5°C° 0.3 mm 2 mps 752 mmHg 94%
    19:00 +5°C° 0.3 mm 2 mps 752 mmHg 95%
    20:00 +6°C° 0.3 mm 1 mps 752 mmHg 96%
    21:00 +6°C° 0 mm 1 mps 752 mmHg 96%
    22:00 +5°C° 0 mm 1 mps 752 mmHg 96%
    23:00 +5°C° 0 mm 1 mps 752 mmHg 96%

    23 Enero, Miércoles

    Tiempo Temperatura Precipitaciones Viento Presión Humedad
    00:00 +5°C° 0.1 mm 1 mps 752 mmHg 96%
    01:00 +5°C° 0.1 mm 1 mps 752 mmHg 96%
    02:00 +6°C° 0.1 mm 1 mps 752 mmHg 96%
    03:00 +6°C° 0.3 mm 1 mps 752 mmHg 97%
    04:00 +6°C° 0.3 mm 1 mps 753 mmHg 97%
    05:00 +6°C° 0.3 mm 1 mps 753 mmHg 97%
    06:00 +6°C° 0 mm 1 mps 753 mmHg 97%
    07:00 +6°C° 0 mm 0 mps 753 mmHg 97%
    08:00 +6°C° 0 mm 0 mps 754 mmHg 97%
    09:00 +7°C° 0.1 mm 1 mps 754 mmHg 97%
    10:00 +8°C° 0.1 mm 1 mps 755 mmHg 98%
    11:00 +9°C° 0.1 mm 1 mps 755 mmHg 98%
    12:00 +9°C° 0.1 mm 1 mps 755 mmHg 98%
    13:00 +8°C° 0.1 mm 2 mps 755 mmHg 98%
    14:00 +9°C° 0.1 mm 2 mps 755 mmHg 98%
    15:00 +9°C° 0.6 mm 2 mps 755 mmHg 98%
    16:00 +9°C° 0.6 mm 2 mps 755 mmHg 98%
    17:00 +9°C° 0.6 mm 3 mps 756 mmHg 98%
    18:00 +9°C° 0.2 mm 3 mps 756 mmHg 97%
    19:00 +10°C° 0.2 mm 4 mps 756 mmHg 97%
    20:00 +9°C° 0.2 mm 5 mps 756 mmHg 96%
    21:00 +9°C° 0.1 mm 5 mps 757 mmHg 96%
    22:00 +9°C° 0.1 mm 5 mps 757 mmHg 96%
    23:00 +9°C° 0.1 mm 5 mps 757 mmHg 96%

    24 Enero, Jueves

    Tiempo Temperatura Precipitaciones Viento Presión Humedad
    00:00 +10°C° 0 mm 4 mps 757 mmHg 96%
    01:00 +10°C° 0 mm 4 mps 758 mmHg 97%
    02:00 +10°C° 0 mm 3 mps 758 mmHg 97%
    03:00 +10°C° 0.1 mm 4 mps 758 mmHg 97%
    04:00 +10°C° 0.1 mm 4 mps 758 mmHg 97%
    05:00 +10°C° 0.1 mm 4 mps 759 mmHg 97%
    06:00 +10°C° 0.1 mm 4 mps 759 mmHg 96%
    07:00 +10°C° 0.1 mm 4 mps 759 mmHg 96%
    08:00 +10°C° 0.1 mm 4 mps 760 mmHg 96%
    09:00 +10°C° 0 mm 4 mps 760 mmHg 94%
    10:00 +9°C° 0 mm 5 mps 760 mmHg 91%
    11:00 +10°C° 0 mm 5 mps 761 mmHg 89%
    12:00 +9°C° 0 mm 5 mps 761 mmHg 87%
    13:00 +9°C° 0 mm 5 mps 761 mmHg 85%
    14:00 +9°C° 0 mm 6 mps 761 mmHg 84%
    15:00 +8°C° 0 mm 5 mps 761 mmHg 86%
    16:00 +8°C° 0 mm 4 mps 761 mmHg 88%
    17:00 +8°C° 0 mm 4 mps 761 mmHg 91%
    18:00 +8°C° 0 mm 4 mps 761 mmHg 91%
    19:00 +8°C° 0 mm 4 mps 762 mmHg 91%
    20:00 +8°C° 0 mm 4 mps 762 mmHg 91%
    21:00 +8°C° 0 mm 4 mps 762 mmHg 91%
    22:00 +7°C° 0 mm 4 mps 762 mmHg 90%
    23:00 +7°C° 0 mm 4 mps 762 mmHg 89%

    25 Enero, Viernes

    Tiempo Temperatura Precipitaciones Viento Presión Humedad
    00:00 +7°C° 0 mm 4 mps 762 mmHg 90%
    01:00 +7°C° 0 mm 4 mps 762 mmHg 90%
    02:00 +7°C° 0 mm 4 mps 762 mmHg 90%
    03:00 +7°C° 0 mm 4 mps 762 mmHg 90%
    04:00 +7°C° 0 mm 4 mps 762 mmHg 90%
    05:00 +8°C° 0 mm 3 mps 762 mmHg 90%
    06:00 +8°C° 0 mm 3 mps 762 mmHg 91%
    07:00 +7°C° 0 mm 4 mps 762 mmHg 92%
    08:00 +7°C° 0 mm 4 mps 762 mmHg 92%
    09:00 +7°C° 0 mm 4 mps 762 mmHg 92%
    10:00 +8°C° 0 mm 4 mps 762 mmHg 92%
    11:00 +10°C° 0 mm 4 mps 761 mmHg 92%
    12:00 +10°C° 0.1 mm 4 mps 761 mmHg 93%
    13:00 +10°C° 0.1 mm 4 mps 760 mmHg 94%
    14:00 +10°C° 0.1 mm 4 mps 760 mmHg 95%
    15:00 +10°C° 0.2 mm 4 mps 759 mmHg 95%
    16:00 +10°C° 0.2 mm 4 mps 759 mmHg 95%
    17:00 +9°C° 0.2 mm 5 mps 758 mmHg 96%
    18:00 +9°C° 0.2 mm 5 mps 758 mmHg 95%
    19:00 +9°C° 0.2 mm 5 mps 757 mmHg 94%
    20:00 +9°C° 0.2 mm 6 mps 757 mmHg 93%
    21:00 +9°C° 0.3 mm 6 mps 756 mmHg 92%
    22:00 +9°C° 0.3 mm 6 mps 755 mmHg 92%
    23:00 +9°C° 0.3 mm 7 mps 754 mmHg 92%
    Mostrar más